K1PM-WX Weather Reports


time (UTC)temp
C
wind
direction
speed
KPH
gust
KPH
rain 1hr
cm
rain 24hr
cm
rain mn
cm
humidity
%
barometer
mb
20260504014357 10 248 19.3 25.7 0.00 0.00 0.33 66 1032.0
20260504013857 10 225 9.7 24.1 0.00 0.00 0.33 66 1032.0
20260504013357 10 248 14.5 19.3 0.00 0.00 0.33 66 1032.0
20260504012857 10 225 27.4 27.4 0.00 0.00 0.33 66 1032.0
20260504012356 10 203 24.1 24.1 0.00 0.00 0.33 65 1032.0
20260504011856 10 248 25.7 30.6 0.00 0.00 0.33 65 1032.0
20260504011356 10 225 19.3 29.0 0.00 0.00 0.33 64 1032.0
20260504010856 10 248 16.1 24.1 0.00 0.00 0.33 64 1032.0
20260504010356 10 248 24.1 24.1 0.00 0.00 0.33 63 1032.0
20260504005856 10 225 25.7 30.6 0.00 0.00 0.33 63 1032.0
20260504005356 11 225 24.1 27.4 0.00 0.00 0.33 62 1032.0
20260504004856 11 248 19.3 27.4 0.00 0.00 0.33 62 1032.0
20260504004356 11 225 19.3 24.1 0.00 0.00 0.33 62 1032.0
20260504003856 11 270 12.9 24.1 0.00 0.00 0.33 62 1032.0
20260504003356 11 248 29.0 29.0 0.00 0.00 0.33 62 1032.0
20260504002857 11 225 14.5 29.0 0.00 0.00 0.33 62 1032.0
20260504002356 11 248 11.3 27.4 0.00 0.00 0.33 63 1032.0
20260504001857 11 225 17.7 27.4 0.00 0.00 0.33 64 1032.0
20260504001356 10 270 16.1 25.7 0.00 0.00 0.33 64 1032.0
20260504000856 10 225 19.3 19.3 0.00 0.00 0.33 65 1032.0
20260504000356 10 270 16.1 17.7 0.00 0.00 0.33 65 1032.0
20260503235857 10 225 8.0 24.1 0.00 0.00 0.33 65 1032.0
20260503235356 10 248 19.3 24.1 0.00 0.00 0.33 66 1032.0
20260503234857 10 203 12.9 17.7 0.00 0.00 0.33 66 1032.0
20260503234356 10 248 14.5 24.1 0.00 0.00 0.33 66 1032.0
20260503233856 10 248 24.1 24.1 0.00 0.00 0.33 66 1032.0
20260503233356 10 270 14.5 16.1 0.00 0.00 0.33 66 1032.0
20260503232856 10 248 17.7 20.9 0.00 0.00 0.33 66 1032.0
20260503232356 10 270 20.9 24.1 0.00 0.00 0.33 66 1032.0
20260503231856 10 270 17.7 22.5 0.00 0.00 0.33 66 1032.0
20260503231356 10 270 11.3 16.1 0.00 0.00 0.33 66 1032.0
20260503230856 11 270 11.3 17.7 0.00 0.00 0.33 66 1032.0
20260503230356 11 225 19.3 22.5 0.00 0.00 0.33 65 1032.0
20260503225856 11 270 22.5 32.2 0.00 0.00 0.33 65 1032.0
20260503225356 11 225 19.3 19.3 0.00 0.00 0.33 65 1032.0
20260503224856 11 270 30.6 30.6 0.00 0.00 0.33 65 1032.0
20260503224357 11 225 9.7 24.1 0.00 0.00 0.33 65 1032.0
20260503223856 11 248 20.9 29.0 0.00 0.00 0.33 65 1032.0
20260503223356 11 225 16.1 35.4 0.00 0.00 0.33 66 1032.0
20260503222856 11 225 12.9 25.7 0.00 0.00 0.33 66 1032.0
20260503222356 10 270 19.3 30.6 0.05 0.00 0.33 67 1033.0
20260503221856 10 248 24.1 30.6 0.05 0.00 0.33 67 1033.0
20260503221356 10 225 37.0 37.0 0.05 0.00 0.33 67 1033.0
20260503220856 10 203 27.4 35.4 0.05 0.00 0.33 67 1033.0
20260503220356 10 248 27.4 32.2 0.05 0.00 0.33 66 1032.0
20260503215856 10 248 35.4 35.4 0.05 0.00 0.33 66 1033.0
20260503215358 10 248 22.5 32.2 0.05 0.00 0.33 66 1032.0
20260503214856 10 248 24.1 24.1 0.05 0.00 0.33 66 1032.0
20260503214356 10 248 19.3 25.7 0.08 0.00 0.33 66 1032.0
20260503213856 10 248 27.4 33.8 0.08 0.00 0.33 66 1032.0
20260503213356 10 225 24.1 30.6 0.08 0.00 0.33 66 1032.0
20260503212856 10 225 17.7 41.8 0.08 0.00 0.33 66 1032.0
20260503212356 10 248 27.4 32.2 0.03 0.00 0.28 66 1032.0
20260503211856 10 248 22.5 30.6 0.03 0.00 0.28 66 1032.0
20260503211356 10 225 16.1 29.0 0.03 0.00 0.28 66 1032.0
20260503210856 10 225 22.5 38.6 0.03 0.00 0.28 66 1032.0
20260503210356 10 248 25.7 30.6 0.03 0.00 0.28 66 1032.0
20260503205856 10 225 24.1 29.0 0.03 0.00 0.28 65 1032.0
20260503205356 10 225 16.1 32.2 0.03 0.00 0.28 65 1032.0
20260503204856 10 270 33.8 37.0 0.03 0.00 0.28 64 1032.0
20260503204357 10 248 30.6 33.8 0.00 0.00 0.25 63 1033.0
20260503203856 10 225 25.7 29.0 0.00 0.00 0.25 63 1032.0
20260503203356 10 203 20.9 38.6 0.03 0.00 0.25 62 1033.0
20260503202856 10 225 25.7 29.0 0.03 0.00 0.25 62 1033.0
20260503202356 11 203 33.8 33.8 0.03 0.00 0.25 61 1033.0
20260503201856 11 180 24.1 32.2 0.03 0.00 0.25 60 1033.0
20260503201357 11 248 29.0 35.4 0.03 0.00 0.25 59 1033.0
20260503200856 11 248 27.4 33.8 0.03 0.00 0.25 59 1033.0
20260503200356 11 225 29.0 33.8 0.03 0.00 0.25 57 1033.0
20260503195856 11 270 22.5 43.5 0.03 0.00 0.25 57 1033.0
20260503195356 11 225 29.0 30.6 0.05 0.00 0.25 57 1033.0
20260503194856 11 225 30.6 35.4 0.05 0.00 0.25 56 1033.0
20260503194356 11 248 30.6 35.4 0.05 0.00 0.25 56 1033.0
20260503193856 11 225 19.3 40.2 0.03 0.00 0.23 55 1033.0
20260503193356 12 248 40.2 40.2 0.05 0.00 0.23 55 1033.0
20260503192856 11 270 30.6 43.5 0.05 0.00 0.23 53 1033.0
20260503191858 11 270 37.0 43.5 0.05 0.00 0.23 53 1033.0
20260503190908 11 248 32.2 43.5 0.05 0.00 0.23 52 1033.0
20260503190356 11 270 30.6 37.0 0.05 0.00 0.23 52 1034.0
20260503185856 11 225 30.6 37.0 0.03 0.00 0.20 51 1034.0
20260503185357 11 225 37.0 40.2 0.20 0.00 0.20 50 1034.0
20260503184856 12 248 17.7 40.2 0.20 0.00 0.20 49 1034.0
20260503184356 11 203 37.0 45.1 0.20 0.00 0.20 49 1034.0
20260503183856 11 225 20.9 41.8 0.18 0.00 0.18 47 1034.0
20260503183356 12 248 25.7 35.4 0.18 0.00 0.18 46 1034.0
20260503182856 12 203 16.1 30.6 0.18 0.00 0.18 46 1034.0
20260503182356 11 225 33.8 46.7 0.18 0.00 0.18 45 1034.0
20260503181856 11 248 32.2 37.0 0.18 0.00 0.18 44 1035.0
20260503181356 11 248 22.5 40.2 0.18 0.00 0.18 44 1035.0
20260503180857 12 225 25.7 43.5 0.18 0.00 0.18 44 1035.0
20260503180356 12 225 41.8 41.8 0.18 0.00 0.18 45 1035.0
20260503175856 12 203 25.7 29.0 0.00 0.00 0.00 46 1035.0
20260503175356 11 180 19.3 32.2 0.00 0.00 0.00 46 1035.0
20260503174856 11 225 30.6 35.4 0.00 0.00 0.00 47 1035.0
20260503174356 12 225 19.3 35.4 0.00 0.00 0.00 50 1035.0
20260503173856 11 225 30.6 30.6 0.00 0.00 0.00 53 1035.0
20260503173356 10 270 14.5 30.6 0.00 0.00 0.00 57 1035.0
20260503172857 10 248 14.5 32.2 0.00 0.00 0.00 59 1035.0
20260503172356 10 270 24.1 32.2 0.00 0.00 0.00 61 1035.0
20260503171856 10 248 17.7 33.8 0.00 0.00 0.00 64 1036.0
20260503171357 10 270 22.5 30.6 0.00 0.00 0.00 65 1036.0
20260503170857 10 225 22.5 35.4 0.00 0.00 0.00 66 1036.0
20260503170356 10 248 27.4 32.2 0.00 0.00 0.00 67 1036.0
20260503150857 8 248 25.7 25.7 0.00 0.00 0.00 67 1037.0
20260503131356 8 203 20.9 20.9 0.00 0.00 0.00 78 1037.0
20260503130857 8 203 8.0 20.9 0.00 0.00 0.00 78 1037.0
20260503130357 8 248 8.0 17.7 0.00 0.00 0.00 79 1037.0
20260503110357 1 158 3.2 4.8 0.00 0.00 0.00 99 1037.0
20260503090357 -2 90 0.0 0.0 0.00 0.00 0.00 99 1037.0
20260503081356 -1 113 0.0 0.0 0.00 0.00 0.00 99 1037.0
20260503080857 -1 113 0.0 0.0 0.00 0.00 0.00 99 1037.0
20260503080356 -1 158 0.0 0.0 0.00 0.00 0.00 99 1037.0
20260503072856 -1 270 0.0 0.0 0.00 0.00 0.00 99 1037.0
20260503072356 0 203 0.0 1.6 0.00 0.00 0.00 99 1037.0
20260503071856 0 113 0.0 0.0 0.00 0.00 0.00 99 1037.0
20260503071356 0 158 0.0 0.0 0.00 0.00 0.00 99 1037.0
20260503070856 0 158 0.0 0.0 0.00 0.00 0.00 98 1037.0
20260503070356 0 180 0.0 0.0 0.00 0.00 0.00 98 1037.0
20260503054856 1 180 0.0 0.0 0.00 0.00 0.00 94 1037.0
20260503054357 1 180 0.0 0.0 0.00 0.00 0.00 93 1037.0
20260503053856 1 180 0.0 0.0 0.00 0.00 0.00 93 1037.0
20260503053356 1 180 0.0 1.6 0.00 0.00 0.00 92 1037.0
20260503052856 1 158 0.0 1.6 0.00 0.00 0.00 91 1037.0
20260503052356 1 135 0.0 1.6 0.00 0.00 0.00 90 1037.0
20260503051856 1 158 0.0 0.0 0.00 0.00 0.00 90 1037.0
20260503051356 1 158 0.0 0.0 0.00 0.00 0.00 90 1038.0
20260503050856 1 180 0.0 0.0 0.00 0.00 0.00 89 1037.0
20260503050357 1 158 0.0 1.6 0.00 0.00 0.00 89 1037.0
20260503045856 2 180 1.6 1.6 0.00 0.00 0.00 88 1038.0
20260503045356 2 180 0.0 0.0 0.00 0.00 0.00 88 1038.0
20260503044856 2 203 0.0 0.0 0.00 0.00 0.00 87 1038.0
20260503044356 2 180 1.6 3.2 0.00 0.00 0.00 86 1038.0
20260503043857 2 158 0.0 0.0 0.00 0.00 0.00 85 1038.0
20260503043356 2 180 0.0 1.6 0.00 0.00 0.00 85 1038.0
20260503042857 2 203 1.6 3.2 0.00 0.00 0.00 84 1038.0
20260503042356 3 203 0.0 4.8 0.00 0.00 0.00 83 1038.0
20260503041856 3 180 1.6 1.6 0.00 0.00 0.00 83 1038.0
20260503041356 3 225 1.6 1.6 0.00 0.00 0.00 82 1038.0
20260503040856 3 180 1.6 3.2 0.00 0.00 0.00 81 1038.0
20260503040356 3 180 3.2 4.8 0.00 0.00 0.00 80 1038.0
20260503035856 3 180 3.2 4.8 0.00 0.00 0.00 79 1038.0
20260503035356 3 158 3.2 4.8 0.00 0.00 0.00 78 1038.0
20260503034856 4 180 3.2 6.4 0.00 0.00 0.00 78 1038.0
20260503034356 4 180 6.4 6.4 0.00 0.00 0.00 77 1038.0
20260503033856 4 203 8.0 8.0 0.00 0.00 0.00 76 1038.0
20260503033357 5 180 4.8 6.4 0.00 0.00 0.00 75 1038.0
20260503032856 5 203 4.8 6.4 0.00 0.00 0.00 74 1038.0
20260503032358 5 203 4.8 4.8 0.00 0.00 0.00 74 1038.0
20260503031856 5 180 3.2 3.2 0.00 0.00 0.00 74 1038.0
20260503031356 5 248 1.6 4.8 0.00 0.00 0.00 74 1038.0
20260503030856 5 225 4.8 4.8 0.00 0.00 0.00 74 1038.0
20260503030356 5 225 1.6 8.0 0.00 0.00 0.00 74 1038.0
20260503025856 5 203 3.2 4.8 0.00 0.00 0.00 74 1038.0
20260503025356 5 225 3.2 6.4 0.00 0.00 0.00 74 1038.0
20260503024856 5 270 3.2 3.2 0.00 0.00 0.00 74 1038.0
20260503024356 5 248 3.2 4.8 0.00 0.00 0.00 74 1038.0
20260503023856 5 248 1.6 1.6 0.00 0.00 0.00 74 1038.0
20260503023356 5 203 3.2 4.8 0.00 0.00 0.00 74 1038.0
20260503022856 5 203 3.2 3.2 0.00 0.00 0.00 74 1038.0
20260503022356 5 270 3.2 4.8 0.00 0.00 0.00 74 1038.0
20260503021856 5 248 3.2 4.8 0.00 0.00 0.00 74 1038.0
20260503021356 5 225 3.2 4.8 0.00 0.00 0.00 74 1038.0
20260503020856 5 225 3.2 4.8 0.00 0.00 0.00 74 1038.0
20260503020357 5 248 4.8 4.8 0.00 0.00 0.00 74 1038.0
20260503015856 5 225 4.8 6.4 0.00 0.00 0.00 74 1038.0
20260503015356 5 225 4.8 8.0 0.00 0.00 0.00 74 1038.0
20260503014856 5 270 3.2 6.4 0.00 0.00 0.00 74 1038.0